This is the latest recevied weather packets stored in our database for station/object HB4LO-13. If no packets are shown the sender has not sent any weather packets the latest 1 day(s).
| Time | Temp. | Humidity | Pressure | Rain* | Wind** | Luminosity | Snow |
|---|---|---|---|---|---|---|---|
| 1777985766 | 13.89° C | 62% | - | 0 mm | 0 m/s | - | - |
| 1777985706 | 14.44° C | 62% | - | 0 mm | 0 m/s | - | - |
| 1777985646 | 13.89° C | 62% | - | 0 mm | 0 m/s | - | - |
| 1777985586 | 13.89° C | 62% | - | 0 mm | 0.45 m/s, 172° | - | - |
| 1777985526 | 13.89° C | 62% | - | 0 mm | 0 m/s | - | - |
| 1777985466 | 13.89° C | 62% | - | 0 mm | 0 m/s | - | - |
| 1777985406 | 13.89° C | 62% | - | 0 mm | 0 m/s | - | - |
| 1777985346 | 13.89° C | 62% | - | 0 mm | 0.45 m/s, 172° | - | - |
| 1777985286 | 13.89° C | 62% | - | 0 mm | 0.45 m/s, 168° | - | - |
| 1777985226 | 14.44° C | 62% | - | 0 mm | 0 m/s | - | - |
| 1777985166 | 13.89° C | 62% | - | 0 mm | 0.45 m/s, 186° | - | - |
| 1777985106 | 13.89° C | 62% | - | 0 mm | 0 m/s | - | - |
| 1777985046 | 14.44° C | 62% | - | 0 mm | 0 m/s | - | - |
| 1777984986 | 14.44° C | 62% | - | 0 mm | 0 m/s | - | - |
| 1777984926 | 14.44° C | 62% | - | 0 mm | 0.45 m/s, 163° | - | - |
| 1777984866 | 14.44° C | 62% | - | 0 mm | 1.34 m/s, 171° | - | - |
| 1777984806 | 14.44° C | 62% | - | 0 mm | 0.45 m/s, 174° | - | - |
| 1777984746 | 14.44° C | 62% | - | 0 mm | 0.89 m/s, 171° | - | - |
| 1777984686 | 14.44° C | 62% | - | 0 mm | 0.89 m/s, 167° | - | - |
| 1777984626 | 14.44° C | 62% | - | 0 mm | 0.89 m/s, 174° | - | - |
| 1777984566 | 14.44° C | 62% | - | 0 mm | 0.45 m/s, 173° | - | - |
| 1777984506 | 14.44° C | 62% | - | 0 mm | 0.89 m/s, 171° | - | - |
| 1777984446 | 14.44° C | 62% | - | 0 mm | 1.34 m/s, 175° | - | - |
| 1777984386 | 14.44° C | 62% | - | 0 mm | 0.45 m/s, 171° | - | - |
| 1777984326 | 15° C | 62% | - | 0 mm | 1.34 m/s, 155° | - | - |
* Rain latest hour (hover to see other rain measurements)
** Current wind speed in m/s (hover to see current wind gust speed)